(704) Interamnia
ephemeris date magn radius delta ra dec elong phase
Today9 May 202512.43.476 AU3.100 AU09h51m-06°30'103.4°16.4°
Opposition1 May 202611.53.469 AU2.509 AU14h02m-34°52'159.0°6.0°
(704) Interamnia - 2025-05-09
astro.vanbuitenen.nl


 
-1 year
-1 month
-1 day
Now
+1 day
+1 month
+1 year

The interactive orbit chart above shows the body's path through the solar system and its position at the given date. Green and blue lines are shown perpendicular to the ecliptic plane: Green if the path is above the ecliptic plane, blue if it is below. (Left-click and drag to rotate the view; Right-click and drag to move the view; Use scroll wheel to zoom in our out.)

The orbital elements of Interamnia are:

            e (Eccentricity)                : 0.1554096
            a (Semimajor axis)              : 3.0558371
            i (Inclination)                 : 17.31555
            Ω (Longitude of ascending node) : 280.16780
            ω (Argument of perihelion)      : 94.12537
            M (Mean anomaly)                : 147.27677
            Epoch                           : 2025 May 05

            L (Longitude of perihelion)     : 194.48828
            B (Latitude of perihelion)      : 17.26927
            P (Orbital period in years)     : 5.34            
        

The light curve chart below shows the estimated development of the minor planet's magnitude.


The all-sky chart below shows the path of the minor planet over the same period as the light curve. The current position is marked yellow.





The following chart shows the path of the minor planet in the next few days. The field of view is optimized for (~10x50) binoculars and finderscopes. A more printer-friendly version of the same chart can be found below.




Ephemerides:
Date       Time       RA (2000)    DEC (2000)    delta   radius  elong  phase   PA    magn
2025-05-09 00:00 UT   09 51 39.5   -06 30 59     3.100    3.476  103.4   16.4   106   12.4 
2025-05-09 07:56 UT   09 51 46.7   -06 30 17     3.104    3.476  103.2   16.4   106   12.4 
2025-05-10 00:00 UT   09 52 01.6   -06 28 54     3.114    3.476  102.6   16.5   107   12.4 
2025-05-11 00:00 UT   09 52 24.6   -06 26 56     3.128    3.477  101.8   16.5   107   12.4 
2025-05-12 00:00 UT   09 52 48.6   -06 25 04     3.142    3.478  100.9   16.6   107   12.4 
2025-05-13 00:00 UT   09 53 13.5   -06 23 18     3.156    3.478  100.1   16.6   108   12.4 
2025-05-14 00:00 UT   09 53 39.3   -06 21 39     3.170    3.479   99.3   16.7   108   12.4 
2025-05-15 00:00 UT   09 54 06.1   -06 20 06     3.184    3.480   98.5   16.7   108   12.5 
2025-05-16 00:00 UT   09 54 33.8   -06 18 39     3.198    3.480   97.7   16.7   108   12.5 
2025-05-17 00:00 UT   09 55 02.3   -06 17 19     3.212    3.481   96.8   16.8   109   12.5 
2025-05-18 00:00 UT   09 55 31.8   -06 16 05     3.226    3.481   96.0   16.8   109   12.5 
2025-05-19 00:00 UT   09 56 02.1   -06 14 57     3.241    3.482   95.2   16.8   109   12.5 
2025-05-20 00:00 UT   09 56 33.2   -06 13 55     3.255    3.483   94.4   16.8   110   12.5 
2025-05-21 00:00 UT   09 57 05.2   -06 12 60     3.269    3.483   93.6   16.9   110   12.5 
2025-05-22 00:00 UT   09 57 38.1   -06 12 11     3.284    3.484   92.8   16.9   110   12.5 
2025-05-23 00:00 UT   09 58 11.7   -06 11 28     3.298    3.484   92.0   16.9   110   12.5 
2025-05-24 00:00 UT   09 58 46.2   -06 10 52     3.312    3.485   91.3   16.9   111   12.5 
2025-05-25 00:00 UT   09 59 21.5   -06 10 22     3.327    3.485   90.5   16.9   111   12.6 
2025-05-26 00:00 UT   09 59 57.6   -06 09 59     3.341    3.486   89.7   16.9   111   12.6 
2025-05-27 00:00 UT   10 00 34.4   -06 09 42     3.355    3.487   88.9   16.9   111   12.6 
2025-05-28 00:00 UT   10 01 12.0   -06 09 31     3.370    3.487   88.1   16.9   112   12.6 
2025-05-29 00:00 UT   10 01 50.4   -06 09 26     3.384    3.488   87.4   16.9   112   12.6 
2025-05-30 00:00 UT   10 02 29.5   -06 09 28     3.398    3.488   86.6   16.9   112   12.6 
2025-05-31 00:00 UT   10 03 09.4   -06 09 36     3.412    3.489   85.8   16.8   113   12.6 
2025-06-01 00:00 UT   10 03 49.9   -06 09 50     3.427    3.489   85.1   16.8   113   12.6 
2025-06-02 00:00 UT   10 04 31.2   -06 10 11     3.441    3.490   84.3   16.8   113   12.6 
2025-06-03 00:00 UT   10 05 13.1   -06 10 38     3.455    3.490   83.6   16.8   113   12.6 
2025-06-04 00:00 UT   10 05 55.8   -06 11 11     3.469    3.491   82.8   16.8   114   12.6 
2025-06-05 00:00 UT   10 06 39.0   -06 11 50     3.484    3.491   82.1   16.7   114   12.7 
2025-06-06 00:00 UT   10 07 23.0   -06 12 35     3.498    3.492   81.3   16.7   114   12.7 
2025-06-07 00:00 UT   10 08 07.6   -06 13 26     3.512    3.493   80.6   16.7   114   12.7 
2025-06-08 00:00 UT   10 08 52.8   -06 14 23     3.526    3.493   79.8   16.6   115   12.7 


    Terminology:
            
    delta:  distance between minor planet and earth in AU
    radius: distance between minor planet and sun in AU
    magn:   magnitude (brightness) estimate    
    ra:     right ascension in hours (24h = 360deg)
    dec:    declination in degrees
    elong:  elongation in degrees (angle sun-earth-minor planet)    
    phase:  phase angle in degrees (angle sun-minor planet-earth)        
    AU:     Astronomical Unit (mean distance between earth and sun: 149597870.7 km
    

Orbital elements provided by the MPC (Minor Planet Center).
Calculations by a modified version of AAPlus, a C# implementation of the AA+ project by PJ Naughter from the algorithms presented in the book "Astronomical Algorithms" by Jean Meeus.
NGC2000 dso catalog and star labels from VizieR as provided by the Strasbourg astronomical Data Center.
Tycho2 catalog from the ESO archive.